"SCLK","SCET","ORBIT_NUMBER","ALTITUDE","LATITUDE_PLANEOGRAPHIC","LATITUDE_PLANETOCENTRIC","LOCAL_TRUE_SOLAR_TIME","WEST_LONGITUDE","X_SUN_DIR_DISTANCE","RHO_PRP_SUN_DISTANCE","SOLAR_ZENITH_ANGLE","ELECTRON_PLASMA_FREQUENCY","FPE_QUALITY","FPP_VERIFICATION","ELECTRON_PLASMA_DENSITY","ELECTRON_CYCLOTRON_PERIOD","FCP_QUALITY","B_MAGNITUDE"
"1/0366152549.55980",2014-12-08T21:02:33.833,13881,756.00,33.13,32.84,"09:14:06",173.77,0.620,1.050,59.97,,,,,9.13e-01,2,3.91e+01
"1/0366152557.26030",2014-12-08T21:02:41.376,13881,763.00,32.73,32.44,"09:14:13",173.77,0.620,1.050,59.61,,,,,9.30e-01,1,3.84e+01
"1/0366152564.61681",2014-12-08T21:02:48.920,13881,771.00,32.33,32.04,"09:14:21",173.77,0.630,1.050,59.25,,,,,8.63e-01,2,4.14e+01
"1/0366152572.31731",2014-12-08T21:02:56.463,13881,779.00,31.93,31.65,"09:14:28",173.77,0.640,1.050,58.89,,,,,9.38e-01,1,3.81e+01
"1/0366152580.01781",2014-12-08T21:03:04.006,13881,787.00,31.53,31.25,"09:12:18",173.78,0.650,1.050,58.54,,,,,8.80e-01,2,4.06e+01
"1/0366152587.37367",2014-12-08T21:03:11.549,13881,795.00,31.14,30.86,"09:12:25",173.78,0.650,1.040,58.18,,,,,9.30e-01,1,3.84e+01
"1/0366152595.07417",2014-12-08T21:03:19.092,13881,802.00,30.74,30.47,"09:12:33",173.78,0.660,1.040,57.83,,,,,9.21e-01,1,3.88e+01
"1/0366152602.43069",2014-12-08T21:03:26.636,13881,810.00,30.35,30.08,"09:12:40",173.78,0.670,1.040,57.48,,,,,9.38e-01,1,3.81e+01
"1/0366152610.13119",2014-12-08T21:03:34.179,13881,818.00,29.96,29.69,"09:12:47",173.78,0.680,1.040,57.13,,,,,9.46e-01,1,3.78e+01
"1/0366152617.48705",2014-12-08T21:03:41.722,13881,827.00,29.57,29.30,"09:10:37",173.79,0.680,1.040,56.78,,,,,9.21e-01,1,3.88e+01
"1/0366152625.18755",2014-12-08T21:03:49.265,13881,835.00,29.18,28.92,"09:10:44",173.79,0.690,1.030,56.43,,,,,8.88e-01,1,4.02e+01
"1/0366152632.54406",2014-12-08T21:03:56.809,13881,843.00,28.79,28.53,"09:10:52",173.79,0.700,1.030,56.09,,,,,9.55e-01,1,3.74e+01
"1/0366152640.24456",2014-12-08T21:04:04.352,13881,851.00,28.41,28.15,"09:08:42",173.80,0.710,1.030,55.75,,,,,9.63e-01,1,3.71e+01
"1/0366152647.60042",2014-12-08T21:04:11.895,13881,860.00,28.02,27.77,"09:08:49",173.80,0.710,1.030,55.40,,,,,9.46e-01,1,3.78e+01
"1/0366152655.30093",2014-12-08T21:04:19.438,13881,868.00,27.64,27.39,"09:06:39",173.81,0.720,1.030,55.06,,,,,9.35e-01,2,3.82e+01
"1/0366152663.00143",2014-12-08T21:04:26.981,13881,876.00,27.26,27.01,"09:06:46",173.81,0.730,1.020,54.73,,,,,9.21e-01,1,3.88e+01
"1/0366152670.35794",2014-12-08T21:04:34.525,13881,885.00,26.88,26.63,"09:04:36",173.82,0.740,1.020,54.39,,,,,9.63e-01,1,3.71e+01
"1/0366152678.05844",2014-12-08T21:04:42.068,13881,893.00,26.50,26.26,"09:04:43",173.82,0.740,1.020,54.06,,,,,9.38e-01,1,3.81e+01
"1/0366152685.41430",2014-12-08T21:04:49.611,13881,902.00,26.13,25.89,"09:02:33",173.83,0.750,1.020,53.72,,,,,1.05e+00,1,3.41e+01
"1/0366152693.11480",2014-12-08T21:04:57.154,13881,911.00,25.75,25.51,"09:02:40",173.83,0.760,1.010,53.39,,,,,1.01e+00,1,3.53e+01
"1/0366152700.47066",2014-12-08T21:05:04.697,13881,919.00,25.38,25.14,"09:00:30",173.84,0.770,1.010,53.06,,,,,1.04e+00,1,3.44e+01
"1/0366152708.17182",2014-12-08T21:05:12.241,13881,928.00,25.01,24.77,"08:58:20",173.85,0.770,1.010,52.73,,,,,1.03e+00,1,3.47e+01
"1/0366152715.52768",2014-12-08T21:05:19.784,13881,937.00,24.64,24.41,"08:58:27",173.85,0.780,1.010,52.41,,,,,1.02e+00,1,3.50e+01
"1/0366152723.22818",2014-12-08T21:05:27.327,13881,946.00,24.27,24.04,"08:56:17",173.86,0.790,1.000,52.08,,,,,1.06e+00,1,3.36e+01
"1/0366152730.58404",2014-12-08T21:05:34.870,13881,955.00,23.90,23.68,"08:54:07",173.87,0.800,1.000,51.76,,,,,1.05e+00,1,3.39e+01
"1/0366152738.28454",2014-12-08T21:05:42.413,13881,963.00,23.53,23.31,"08:54:14",173.87,0.800,1.000,51.44,,,,,1.08e+00,1,3.31e+01
"1/0366152745.64105",2014-12-08T21:05:49.957,13881,972.00,23.17,22.95,"08:52:04",173.88,0.810,1.000,51.12,,,,,1.16e+00,1,3.07e+01
"1/0366152753.34155",2014-12-08T21:05:57.500,13881,981.00,22.81,22.59,"08:49:54",173.89,0.820,1.000,50.81,,,,,1.13e+00,1,3.16e+01
"1/0366152761.04205",2014-12-08T21:06:05.043,13881,991.00,22.45,22.23,"08:47:44",173.90,0.820,0.990,50.49,,,,,1.20e+00,1,2.99e+01
"1/0366152768.39791",2014-12-08T21:06:12.586,13881,1000.00,22.09,21.88,"08:45:34",173.91,0.830,0.990,50.18,,,,,1.14e+00,1,3.14e+01
"1/0366152776.09842",2014-12-08T21:06:20.129,13881,1009.00,21.73,21.52,"08:45:41",173.91,0.840,0.990,49.86,,,,,1.20e+00,1,2.97e+01
"1/0366152791.15543",2014-12-08T21:06:35.216,13881,1027.00,21.01,20.82,"08:41:21",173.93,0.850,0.980,49.25,,,,,1.30e+00,1,2.74e+01
"1/0366152836.32517",2014-12-08T21:07:20.475,13881,1084.00,18.91,18.73,"08:28:20",173.99,0.890,0.970,47.43,,,,,1.52e+00,1,2.35e+01
"1/0366152844.02567",2014-12-08T21:07:28.018,13881,1093.00,18.57,18.39,"08:26:09",174.00,0.900,0.970,47.14,,,,,1.44e+00,1,2.49e+01
"1/0366152851.38153",2014-12-08T21:07:35.561,13881,1103.00,18.22,18.05,"08:23:59",174.01,0.910,0.960,46.84,,,,,1.86e+00,1,1.92e+01
"1/0366152866.43854",2014-12-08T21:07:50.648,13881,1122.00,17.54,17.37,"08:19:39",174.03,0.920,0.960,46.26,,,,,1.15e+00,1,3.12e+01
"1/0366152874.13904",2014-12-08T21:07:58.191,13881,1132.00,17.20,17.04,"08:17:29",174.04,0.930,0.960,45.97,,,,,1.25e+00,1,2.85e+01
"1/0366152881.49490",2014-12-08T21:08:05.734,13881,1142.00,16.86,16.70,"08:15:19",174.05,0.940,0.950,45.68,,,,,1.32e+00,1,2.71e+01
"1/0366152904.25242",2014-12-08T21:08:28.364,13881,1171.00,15.86,15.71,"08:06:31",174.09,0.960,0.950,44.83,,,,,1.17e+00,2,3.06e+01
"1/0366152911.60828",2014-12-08T21:08:35.907,13881,1181.00,15.53,15.38,"08:04:20",174.10,0.960,0.940,44.55,,,,,1.39e+00,1,2.58e+01
"1/0366152927.00928",2014-12-08T21:08:50.993,13881,1201.00,14.87,14.72,"08:00:00",174.12,0.980,0.940,44.00,,,,,1.32e+00,1,2.71e+01
"1/0366152957.12266",2014-12-08T21:09:21.166,13881,1241.00,13.56,13.43,"07:49:02",174.17,1.000,0.930,42.91,,,,,1.49e+00,1,2.39e+01
"1/0366152964.47852",2014-12-08T21:09:28.709,13881,1251.00,13.24,13.11,"07:46:52",174.18,1.010,0.920,42.64,,,,,1.20e+00,1,2.97e+01
"1/0366152979.53553",2014-12-08T21:09:43.796,13881,1272.00,12.60,12.48,"07:40:14",174.21,1.020,0.920,42.11,,,,,1.31e+00,1,2.72e+01
"1/0366153032.40577",2014-12-08T21:10:36.598,13881,1344.00,10.40,10.30,"07:20:28",174.30,1.070,0.900,40.31,,,,,1.21e+00,1,2.95e+01
"1/0366153085.27666",2014-12-08T21:11:29.401,13881,1418.00,8.27,8.20,"06:58:24",174.40,1.110,0.880,38.60,,,,,1.51e+00,1,2.36e+01
"1/0366153108.03352",2014-12-08T21:11:52.030,13881,1450.00,7.38,7.31,"06:49:36",174.44,1.130,0.880,37.90,,,,,1.59e+00,1,2.24e+01
"1/0366153145.50276",2014-12-08T21:12:29.746,13881,1504.00,5.92,5.86,"06:34:10",174.51,1.160,0.860,36.76,,,,,1.39e+00,1,2.58e+01
"1/0366153160.55978",2014-12-08T21:12:44.833,13881,1536.00,5.06,5.29,"06:22:57",174.56,1.170,0.850,36.09,,,,,1.85e+00,1,1.93e+01
"1/0366153168.26028",2014-12-08T21:12:52.376,13881,1536.00,5.06,5.01,"06:23:04",174.56,1.170,0.850,36.09,,,,,1.79e+00,1,1.99e+01
